Time,TemperatureF,DewpointF,PressureIn,WindDirection,WindDirectionDegrees,WindSpeedMPH,WindSpeedGustMPH,Humidity,HourlyPrecipIn,Conditions,Clouds,dailyrainin,SoftwareType,DateUTC
2013-03-17 00:08:00,39.0,33.0,29.96,North,0,6.0,8.0,79,0.00,,,0.00,Wunderground v.1.13,2013-03-17 05:08:00,
2013-03-17 00:13:00,38.9,32.9,29.96,North,10,8.0,8.0,79,0.00,,,0.00,Wunderground v.1.13,2013-03-17 05:13:00,
2013-03-17 00:23:00,38.9,32.9,29.96,NNE,30,2.0,6.0,79,0.00,,,0.00,Wunderground v.1.13,2013-03-17 05:23:00,
2013-03-17 00:28:00,38.9,32.9,29.98,NNE,17,2.0,2.0,79,0.00,,,0.00,Wunderground v.1.13,2013-03-17 05:28:00,
2013-03-17 00:38:00,38.8,32.8,29.97,North,360,3.0,3.0,79,0.00,,,0.00,Wunderground v.1.13,2013-03-17 05:38:00,
2013-03-17 00:48:00,38.7,33.1,30.00,NNW,342,1.0,1.0,80,0.00,,,0.00,Wunderground v.1.13,2013-03-17 05:48:00,
2013-03-17 00:53:00,38.7,33.1,30.01,North,355,1.0,1.0,80,0.00,,,0.00,Wunderground v.1.13,2013-03-17 05:53:00,
2013-03-17 00:58:00,38.6,32.6,30.00,NNE,24,2.0,5.0,79,0.00,,,0.00,Wunderground v.1.13,2013-03-17 05:58:00,
2013-03-17 01:03:00,38.5,32.6,29.98,NNE,22,4.0,4.0,79,0.00,,,0.00,Wunderground v.1.13,2013-03-17 06:03:00,
2013-03-17 01:13:00,38.3,32.7,30.00,NNE,19,1.0,4.0,80,0.00,,,0.01,Wunderground v.1.13,2013-03-17 06:13:00,
2013-03-17 01:23:00,37.9,32.6,29.98,NNE,22,3.0,3.0,81,0.00,,,0.01,Wunderground v.1.13,2013-03-17 06:23:00,
2013-03-17 01:28:00,37.8,32.8,30.00,NNE,13,2.0,4.0,82,0.00,,,0.01,Wunderground v.1.13,2013-03-17 06:28:00,
2013-03-17 01:38:00,37.5,32.8,29.98,NNE,13,1.0,1.0,83,0.00,,,0.02,Wunderground v.1.13,2013-03-17 06:38:00,
2013-03-17 01:43:00,37.3,32.6,29.98,NNE,16,1.0,1.0,83,0.07,,,0.03,Wunderground v.1.13,2013-03-17 06:43:00,
2013-03-17 01:48:00,37.2,32.5,29.98,NNE,26,1.0,5.0,83,0.07,,,0.03,Wunderground v.1.13,2013-03-17 06:48:00,
2013-03-17 01:53:00,37.1,32.4,29.98,NNE,30,1.0,1.0,83,0.09,,,0.04,Wunderground v.1.13,2013-03-17 06:53:00,
2013-03-17 01:58:00,36.9,32.5,29.99,NNE,21,1.0,1.0,84,0.14,,,0.05,Wunderground v.1.13,2013-03-17 06:58:00,
2013-03-17 02:08:00,36.8,32.4,30.01,North,355,2.0,4.0,84,0.07,,,0.06,Wunderground v.1.13,2013-03-17 07:08:00,
2013-03-17 02:13:00,36.8,32.4,30.00,NNE,13,4.0,4.0,84,0.07,,,0.07,Wunderground v.1.13,2013-03-17 07:13:00,
2013-03-17 02:18:00,36.7,32.6,30.00,North,11,3.0,3.0,85,0.07,,,0.08,Wunderground v.1.13,2013-03-17 07:18:00,
2013-03-17 02:28:00,36.5,32.4,30.02,NNE,15,1.0,6.0,85,0.10,,,0.10,Wunderground v.1.13,2013-03-17 07:28:00,
2013-03-17 02:33:00,36.5,32.4,30.01,North,360,2.0,2.0,85,0.11,,,0.11,Wunderground v.1.13,2013-03-17 07:33:00,
2013-03-17 02:43:00,36.3,32.2,30.01,NE,36,3.0,5.0,85,0.15,,,0.13,Wunderground v.1.13,2013-03-17 07:43:00,
2013-03-17 02:48:00,36.2,32.1,30.00,NE,41,3.0,3.0,85,0.11,,,0.13,Wunderground v.1.13,2013-03-17 07:48:00,
2013-03-17 02:58:00,36.1,32.0,30.00,NNE,15,2.0,6.0,85,0.04,,,0.14,Wunderground v.1.13,2013-03-17 07:58:00,
2013-03-17 03:03:00,36.1,32.0,30.00,NE,47,2.0,2.0,85,0.04,,,0.14,Wunderground v.1.13,2013-03-17 08:03:00,
2013-03-17 03:13:00,35.9,31.8,30.01,NNE,14,2.0,2.0,85,0.10,,,0.16,Wunderground v.1.13,2013-03-17 08:13:00,
2013-03-17 03:23:00,35.9,32.1,30.01,NNE,15,2.0,2.0,86,0.20,,,0.18,Wunderground v.1.13,2013-03-17 08:23:00,
2013-03-17 03:28:00,35.8,32.0,30.03,North,360,2.0,3.0,86,0.23,,,0.20,Wunderground v.1.13,2013-03-17 08:28:00,
2013-03-17 03:33:00,35.8,32.0,30.02,NNE,30,2.0,2.0,86,0.13,,,0.21,Wunderground v.1.13,2013-03-17 08:33:00,
2013-03-17 03:43:00,35.6,31.8,30.01,North,5,1.0,1.0,86,0.15,,,0.23,Wunderground v.1.13,2013-03-17 08:43:00,
2013-03-17 03:48:00,35.6,31.8,30.01,NNE,17,1.0,5.0,86,0.10,,,0.24,Wunderground v.1.13,2013-03-17 08:48:00,
2013-03-17 03:58:00,35.5,31.7,30.01,NNE,15,2.0,2.0,86,0.04,,,0.24,Wunderground v.1.13,2013-03-17 08:58:00,
2013-03-17 04:03:00,35.4,31.6,30.01,NNE,28,2.0,2.0,86,0.04,,,0.25,Wunderground v.1.13,2013-03-17 09:03:00,
2013-03-17 04:08:00,35.4,31.6,30.00,ENE,63,2.0,2.0,86,0.07,,,0.26,Wunderground v.1.13,2013-03-17 09:08:00,
2013-03-17 04:18:00,35.3,31.5,30.01,NNE,32,1.0,1.0,86,0.08,,,0.27,Wunderground v.1.13,2013-03-17 09:18:00,
2013-03-17 04:28:00,35.3,31.5,30.01,NNE,17,2.0,2.0,86,0.11,,,0.29,Wunderground v.1.13,2013-03-17 09:28:00,
2013-03-17 04:38:00,35.2,31.4,30.02,North,9,5.0,6.0,86,0.06,,,0.30,Wunderground v.1.13,2013-03-17 09:38:00,
2013-03-17 04:48:00,35.1,31.3,30.01,NNE,32,4.0,5.0,86,0.06,,,0.31,Wunderground v.1.13,2013-03-17 09:48:00,
2013-03-17 04:58:00,35.0,31.2,30.01,NNE,20,5.0,5.0,86,0.05,,,0.31,Wunderground v.1.13,2013-03-17 09:58:00,
2013-03-17 05:08:00,35.0,31.2,30.02,ENE,74,4.0,4.0,86,0.08,,,0.33,Wunderground v.1.13,2013-03-17 10:08:00,
2013-03-17 05:13:00,35.0,31.2,30.02,North,5,5.0,5.0,86,0.11,,,0.34,Wunderground v.1.13,2013-03-17 10:13:00,
2013-03-17 05:23:00,35.0,31.2,30.04,NNW,345,4.0,7.0,86,0.19,,,0.36,Wunderground v.1.13,2013-03-17 10:23:00,
2013-03-17 05:28:00,35.0,31.2,30.04,North,351,4.0,4.0,86,0.19,,,0.38,Wunderground v.1.13,2013-03-17 10:28:00,
2013-03-17 05:38:00,34.8,31.0,30.03,NE,36,4.0,4.0,86,0.14,,,0.41,Wunderground v.1.13,2013-03-17 10:38:00,
2013-03-17 05:43:00,34.7,30.9,30.02,NNE,32,3.0,3.0,86,0.13,,,0.42,Wunderground v.1.13,2013-03-17 10:43:00,
2013-03-17 05:53:00,34.6,30.8,30.02,NE,55,2.0,2.0,86,0.12,,,0.44,Wunderground v.1.13,2013-03-17 10:53:00,
2013-03-17 05:58:00,34.4,30.6,30.03,North,9,2.0,4.0,86,0.13,,,0.45,Wunderground v.1.13,2013-03-17 10:58:00,
2013-03-17 06:08:00,34.4,30.6,30.01,NNW,327,5.0,5.0,86,0.14,,,0.48,Wunderground v.1.13,2013-03-17 11:08:00,
2013-03-17 06:18:00,34.4,30.6,30.03,NNE,19,5.0,5.0,86,0.11,,,0.49,Wunderground v.1.13,2013-03-17 11:18:00,
2013-03-17 06:23:00,34.4,30.6,30.03,NNE,17,4.0,4.0,86,0.08,,,0.50,Wunderground v.1.13,2013-03-17 11:23:00,
2013-03-17 06:33:00,34.4,30.6,30.02,ENE,72,5.0,5.0,86,0.12,,,0.52,Wunderground v.1.13,2013-03-17 11:33:00,
2013-03-17 06:43:00,34.2,30.4,30.02,NNE,28,3.0,3.0,86,0.16,,,0.54,Wunderground v.1.13,2013-03-17 11:43:00,
2013-03-17 06:53:00,34.0,30.3,30.03,ENE,65,2.0,2.0,86,0.12,,,0.56,Wunderground v.1.13,2013-03-17 11:53:00,
2013-03-17 06:58:00,33.9,30.2,30.03,ENE,71,2.0,3.0,86,0.09,,,0.57,Wunderground v.1.13,2013-03-17 11:58:00,
2013-03-17 07:08:00,33.6,29.9,30.03,NE,36,3.0,3.0,86,0.15,,,0.60,Wunderground v.1.13,2013-03-17 12:08:00,
2013-03-17 07:18:00,33.5,29.8,30.03,NNE,18,2.0,4.0,86,0.77,,,0.65,Wunderground v.1.13,2013-03-17 12:18:00,
2013-03-17 07:28:00,33.3,29.6,30.03,NE,42,3.0,3.0,86,0.52,,,0.73,Wunderground v.1.13,2013-03-17 12:28:00,
2013-03-17 07:33:00,33.2,29.5,30.03,NNE,25,2.0,2.0,86,0.30,,,0.76,Wunderground v.1.13,2013-03-17 12:33:00,
2013-03-17 07:43:00,33.2,29.5,30.03,ENE,72,2.0,2.0,86,0.15,,,0.79,Wunderground v.1.13,2013-03-17 12:43:00,
2013-03-17 07:48:00,33.3,29.6,30.04,NNE,24,2.0,2.0,86,0.09,,,0.80,Wunderground v.1.13,2013-03-17 12:48:00,
2013-03-17 07:58:00,33.3,29.6,30.04,ENE,60,3.0,3.0,86,0.14,,,0.82,Wunderground v.1.13,2013-03-17 12:58:00,
2013-03-17 08:08:00,33.3,29.6,30.04,NNE,22,3.0,3.0,86,0.13,,,0.85,Wunderground v.1.13,2013-03-17 13:08:00,
2013-03-17 08:18:00,33.3,29.6,30.05,North,11,4.0,4.0,86,0.10,,,0.86,Wunderground v.1.13,2013-03-17 13:18:00,
2013-03-17 08:28:00,33.3,29.6,30.04,NE,51,4.0,4.0,86,0.09,,,0.88,Wunderground v.1.13,2013-03-17 13:28:00,
2013-03-17 08:33:00,33.2,29.5,30.04,NNE,24,3.0,5.0,86,0.14,,,0.89,Wunderground v.1.13,2013-03-17 13:33:00,
2013-03-17 08:43:00,33.1,29.4,30.04,NE,51,1.0,2.0,86,0.14,,,0.92,Wunderground v.1.13,2013-03-17 13:43:00,
2013-03-17 08:48:00,33.1,29.4,30.04,North,5,2.0,2.0,86,0.10,,,0.92,Wunderground v.1.13,2013-03-17 13:48:00,
2013-03-17 08:58:00,33.1,29.4,30.05,NNE,28,4.0,4.0,86,0.09,,,0.94,Wunderground v.1.13,2013-03-17 13:58:00,
2013-03-17 09:08:00,33.1,29.4,30.04,North,360,3.0,5.0,86,0.05,,,0.95,Wunderground v.1.13,2013-03-17 14:08:00,
2013-03-17 09:18:00,33.0,29.3,30.04,NNE,14,4.0,4.0,86,0.08,,,0.96,Wunderground v.1.13,2013-03-17 14:18:00,
2013-03-17 09:23:00,33.0,29.3,30.04,NNE,17,2.0,2.0,86,0.10,,,0.97,Wunderground v.1.13,2013-03-17 14:23:00,
2013-03-17 09:28:00,33.0,29.3,30.03,NNE,15,2.0,5.0,86,0.08,,,0.97,Wunderground v.1.13,2013-03-17 14:28:00,
2013-03-17 09:38:00,33.2,29.8,30.03,NE,38,3.0,3.0,87,0.08,,,0.99,Wunderground v.1.13,2013-03-17 14:38:00,
2013-03-17 09:48:00,33.3,29.8,30.03,NNE,17,2.0,7.0,87,0.07,,,1.00,Wunderground v.1.13,2013-03-17 14:48:00,
2013-03-17 09:53:00,33.3,29.8,30.02,NNE,17,2.0,2.0,87,0.07,,,1.00,Wunderground v.1.13,2013-03-17 14:53:00,
2013-03-17 10:03:00,33.3,29.8,30.04,North,360,3.0,3.0,87,0.17,,,1.02,Wunderground v.1.13,2013-03-17 15:03:00,
2013-03-17 10:13:00,33.3,29.8,30.04,NNE,24,1.0,5.0,87,0.10,,,1.04,Wunderground v.1.13,2013-03-17 15:13:00,
2013-03-17 10:23:00,33.3,29.8,30.06,NNE,26,1.0,1.0,87,0.09,,,1.06,Wunderground v.1.13,2013-03-17 15:23:00,
2013-03-17 10:33:00,33.4,29.9,30.06,North,355,1.0,1.0,87,0.11,,,1.08,Wunderground v.1.13,2013-03-17 15:33:00,
2013-03-17 10:38:00,33.4,29.9,30.06,North,355,0.0,0.0,87,0.13,,,1.09,Wunderground v.1.13,2013-03-17 15:38:00,
2013-03-17 10:48:00,33.4,29.9,30.06,North,360,0.0,0.0,87,0.14,,,1.11,Wunderground v.1.13,2013-03-17 15:48:00,
2013-03-17 10:58:00,33.5,30.0,30.06,NNE,24,0.0,0.0,87,0.25,,,1.15,Wunderground v.1.13,2013-03-17 15:58:00,
2013-03-17 11:08:00,33.4,29.9,30.06,East,87,0.0,0.0,87,0.09,,,1.16,Wunderground v.1.13,2013-03-17 16:08:00,
2013-03-17 11:13:00,33.4,29.9,30.06,East,87,0.0,0.0,87,0.12,,,1.17,Wunderground v.1.13,2013-03-17 16:13:00,
2013-03-17 11:23:00,33.5,30.0,30.05,ENE,64,0.0,0.0,87,0.14,,,1.20,Wunderground v.1.13,2013-03-17 16:23:00,
2013-03-17 11:33:00,33.7,30.2,30.05,NE,38,0.0,0.0,87,0.10,,,1.22,Wunderground v.1.13,2013-03-17 16:33:00,
2013-03-17 11:38:00,33.7,30.2,30.05,NE,44,0.0,0.0,87,0.10,,,1.22,Wunderground v.1.13,2013-03-17 16:38:00,
2013-03-17 11:48:00,34.1,30.6,30.04,ENE,77,0.0,0.0,87,0.14,,,1.25,Wunderground v.1.13,2013-03-17 16:48:00,
2013-03-17 11:58:00,34.3,30.8,30.02,ENE,76,2.0,4.0,87,0.10,,,1.26,Wunderground v.1.13,2013-03-17 16:58:00,
2013-03-17 12:08:00,34.4,30.9,30.00,NE,38,4.0,4.0,87,0.06,,,1.27,Wunderground v.1.13,2013-03-17 17:08:00,
2013-03-17 12:13:00,34.5,31.0,29.98,East,83,4.0,5.0,87,0.05,,,1.27,Wunderground v.1.13,2013-03-17 17:13:00,
2013-03-17 12:18:00,34.5,31.0,29.99,ENE,69,4.0,4.0,87,0.04,,,1.27,Wunderground v.1.13,2013-03-17 17:18:00,
2013-03-17 12:28:00,34.8,31.3,30.00,ENE,67,3.0,5.0,87,0.00,,,1.27,Wunderground v.1.13,2013-03-17 17:28:00,
2013-03-17 12:38:00,35.1,31.6,30.00,East,90,3.0,3.0,87,0.00,,,1.28,Wunderground v.1.13,2013-03-17 17:38:00,
2013-03-17 12:43:00,35.5,32.0,30.00,ENE,78,3.0,3.0,87,0.00,,,1.28,Wunderground v.1.13,2013-03-17 17:43:00,
2013-03-17 12:53:00,35.8,32.3,29.99,ESE,109,1.0,8.0,87,0.00,,,1.28,Wunderground v.1.13,2013-03-17 17:53:00,
2013-03-17 13:03:00,36.0,32.5,29.98,ENE,71,4.0,4.0,87,0.00,,,1.28,Wunderground v.1.13,2013-03-17 18:03:00,
2013-03-17 13:08:00,36.0,32.5,29.98,NNE,17,3.0,6.0,87,0.00,,,1.28,Wunderground v.1.13,2013-03-17 18:08:00,
2013-03-17 13:13:00,36.0,32.5,29.98,NNE,26,3.0,3.0,87,0.00,,,1.28,Wunderground v.1.13,2013-03-17 18:13:00,
2013-03-17 13:23:00,36.2,32.7,29.98,ESE,102,3.0,4.0,87,0.00,,,1.28,Wunderground v.1.13,2013-03-17 18:23:00,
2013-03-17 13:33:00,36.4,32.9,29.99,NNE,33,2.0,2.0,87,0.00,,,1.28,Wunderground v.1.13,2013-03-17 18:33:00,
2013-03-17 13:43:00,36.5,32.7,29.96,East,98,2.0,3.0,86,0.00,,,1.28,Wunderground v.1.13,2013-03-17 18:43:00,
2013-03-17 13:48:00,36.4,32.6,29.95,East,90,3.0,6.0,86,0.00,,,1.28,Wunderground v.1.13,2013-03-17 18:48:00,
2013-03-17 13:58:00,36.9,33.1,29.96,East,84,3.0,3.0,86,0.00,,,1.28,Wunderground v.1.13,2013-03-17 18:58:00,
2013-03-17 14:13:00,36.8,33.0,29.95,NNE,25,2.0,2.0,86,0.00,,,1.28,Wunderground v.1.13,2013-03-17 19:13:00,
2013-03-17 14:18:00,36.8,33.0,29.95,ESE,103,3.0,3.0,86,0.00,,,1.28,Wunderground v.1.13,2013-03-17 19:18:00,
2013-03-17 14:28:00,37.0,33.2,29.94,ENE,61,1.0,4.0,86,0.00,,,1.28,Wunderground v.1.13,2013-03-17 19:28:00,
2013-03-17 14:38:00,36.9,33.1,29.93,NE,36,4.0,8.0,86,0.00,,,1.28,Wunderground v.1.13,2013-03-17 19:38:00,
2013-03-17 14:43:00,37.0,33.2,29.93,East,101,4.0,4.0,86,0.00,,,1.28,Wunderground v.1.13,2013-03-17 19:43:00,
2013-03-17 14:48:00,37.1,33.3,29.93,East,99,2.0,2.0,86,0.00,,,1.28,Wunderground v.1.13,2013-03-17 19:48:00,
2013-03-17 14:58:00,37.0,33.2,29.94,NE,46,2.0,2.0,86,0.00,,,1.28,Wunderground v.1.13,2013-03-17 19:58:00,
2013-03-17 15:08:00,37.1,33.3,29.95,ENE,65,1.0,3.0,86,0.00,,,1.28,Wunderground v.1.13,2013-03-17 20:08:00,
2013-03-17 15:18:00,37.2,33.4,29.94,East,92,2.0,2.0,86,0.00,,,1.28,Wunderground v.1.13,2013-03-17 20:18:00,
2013-03-17 15:28:00,37.2,33.4,29.94,East,85,2.0,2.0,86,0.00,,,1.29,Wunderground v.1.13,2013-03-17 20:28:00,
2013-03-17 15:38:00,37.3,33.5,29.92,NE,41,1.0,2.0,86,0.00,,,1.29,Wunderground v.1.13,2013-03-17 20:38:00,
2013-03-17 15:43:00,37.3,33.5,29.91,ESE,103,2.0,2.0,86,0.04,,,1.30,Wunderground v.1.13,2013-03-17 20:43:00,
2013-03-17 15:53:00,37.5,33.7,29.91,East,90,2.0,2.0,86,0.05,,,1.31,Wunderground v.1.13,2013-03-17 20:53:00,
2013-03-17 16:03:00,37.6,33.8,29.90,ENE,74,2.0,4.0,86,0.07,,,1.32,Wunderground v.1.13,2013-03-17 21:03:00,
2013-03-17 16:13:00,37.7,33.9,29.90,ENE,64,2.0,2.0,86,0.04,,,1.32,Wunderground v.1.13,2013-03-17 21:13:00,
2013-03-17 16:23:00,37.8,34.0,29.90,NNE,18,2.0,3.0,86,0.00,,,1.32,Wunderground v.1.13,2013-03-17 21:23:00,
2013-03-17 16:33:00,37.8,34.0,29.90,NNE,15,3.0,4.0,86,0.00,,,1.32,Wunderground v.1.13,2013-03-17 21:33:00,
2013-03-17 16:43:00,37.9,34.1,29.90,East,88,2.0,5.0,86,0.00,,,1.33,Wunderground v.1.13,2013-03-17 21:43:00,
2013-03-17 16:53:00,37.9,34.1,29.90,NNE,32,1.0,2.0,86,0.09,,,1.34,Wunderground v.1.13,2013-03-17 21:53:00,
2013-03-17 16:58:00,37.9,34.1,29.91,East,93,1.0,1.0,86,0.07,,,1.35,Wunderground v.1.13,2013-03-17 21:58:00,
2013-03-17 17:08:00,37.8,34.0,29.90,NNE,32,1.0,1.0,86,0.15,,,1.37,Wunderground v.1.13,2013-03-17 22:08:00,
2013-03-17 17:18:00,37.7,33.9,29.88,NE,38,2.0,2.0,86,0.11,,,1.39,Wunderground v.1.13,2013-03-17 22:18:00,
2013-03-17 17:28:00,37.8,34.0,29.90,North,5,4.0,4.0,86,0.14,,,1.41,Wunderground v.1.13,2013-03-17 22:28:00,
2013-03-17 17:38:00,37.7,33.9,29.86,ESE,105,2.0,2.0,86,0.07,,,1.42,Wunderground v.1.13,2013-03-17 22:38:00,
2013-03-17 17:48:00,37.7,33.9,29.82,East,82,5.0,9.0,86,0.06,,,1.43,Wunderground v.1.13,2013-03-17 22:48:00,
2013-03-17 17:58:00,37.7,33.9,29.85,NE,56,5.0,5.0,86,0.00,,,1.44,Wunderground v.1.13,2013-03-17 22:58:00,
2013-03-17 18:08:00,37.8,34.0,29.85,ESE,113,3.0,5.0,86,0.08,,,1.44,Wunderground v.1.13,2013-03-17 23:08:00,
2013-03-17 18:13:00,37.8,34.0,29.84,ENE,65,4.0,5.0,86,0.00,,,1.44,Wunderground v.1.13,2013-03-17 23:13:00,
2013-03-17 18:23:00,37.7,33.9,29.83,ENE,69,4.0,4.0,86,0.09,,,1.46,Wunderground v.1.13,2013-03-17 23:23:00,
2013-03-17 18:28:00,37.7,33.9,29.84,NE,51,5.0,7.0,86,0.05,,,1.46,Wunderground v.1.13,2013-03-17 23:28:00,
2013-03-17 18:33:00,37.7,33.9,29.83,ESE,111,5.0,8.0,86,0.04,,,1.46,Wunderground v.1.13,2013-03-17 23:33:00,
2013-03-17 18:43:00,37.7,33.9,29.82,East,92,5.0,8.0,86,0.00,,,1.46,Wunderground v.1.13,2013-03-17 23:43:00,
2013-03-17 18:53:00,37.7,33.9,29.85,NNE,32,3.0,6.0,86,0.00,,,1.46,Wunderground v.1.13,2013-03-17 23:53:00,
2013-03-17 19:03:00,37.6,33.8,29.82,ESE,119,4.0,4.0,86,0.20,,,1.49,Wunderground v.1.13,2013-03-18 00:03:00,
2013-03-17 19:13:00,37.5,33.7,29.83,ESE,107,2.0,2.0,86,0.06,,,1.50,Wunderground v.1.13,2013-03-18 00:13:00,
2013-03-17 19:18:00,37.5,33.7,29.82,ENE,66,3.0,3.0,86,0.12,,,1.51,Wunderground v.1.13,2013-03-18 00:18:00,
2013-03-17 19:28:00,37.3,33.5,29.81,East,87,3.0,3.0,86,0.09,,,1.53,Wunderground v.1.13,2013-03-18 00:28:00,
2013-03-17 19:38:00,37.4,33.6,29.85,NNE,26,2.0,5.0,86,0.65,,,1.56,Wunderground v.1.13,2013-03-18 00:38:00,
2013-03-17 19:48:00,37.2,33.4,29.83,NNE,31,3.0,3.0,86,0.24,,,1.62,Wunderground v.1.13,2013-03-18 00:48:00,
2013-03-17 19:53:00,37.2,33.4,29.83,NE,55,2.0,7.0,86,0.15,,,1.63,Wunderground v.1.13,2013-03-18 00:53:00,
2013-03-17 20:03:00,37.2,33.4,29.82,NNE,30,4.0,4.0,86,0.11,,,1.66,Wunderground v.1.13,2013-03-18 01:03:00,
2013-03-17 20:13:00,37.2,33.4,29.83,NE,53,3.0,6.0,86,0.23,,,1.71,Wunderground v.1.13,2013-03-18 01:13:00,
2013-03-17 20:18:00,37.2,33.7,29.82,ENE,76,3.0,4.0,87,0.20,,,1.73,Wunderground v.1.13,2013-03-18 01:18:00,
2013-03-17 20:28:00,37.1,33.6,29.82,SE,129,4.0,4.0,87,0.08,,,1.75,Wunderground v.1.13,2013-03-18 01:28:00,
2013-03-17 20:38:00,37.1,33.6,29.85,NNE,30,3.0,3.0,87,0.18,,,1.79,Wunderground v.1.13,2013-03-18 01:38:00,
2013-03-17 20:43:00,37.1,33.6,29.83,East,96,3.0,3.0,87,0.65,,,1.83,Wunderground v.1.13,2013-03-18 01:43:00,
2013-03-17 20:53:00,37.0,33.5,29.82,East,79,3.0,3.0,87,0.32,,,1.91,Wunderground v.1.13,2013-03-18 01:53:00,
2013-03-17 20:58:00,36.9,33.4,29.81,ENE,74,6.0,8.0,87,0.71,,,1.95,Wunderground v.1.13,2013-03-18 01:58:00,
2013-03-17 21:08:00,36.9,33.4,29.84,NNE,28,4.0,4.0,87,0.35,,,2.01,Wunderground v.1.13,2013-03-18 02:08:00,
2013-03-17 21:18:00,36.9,33.4,29.84,NE,37,2.0,8.0,87,0.16,,,2.05,Wunderground v.1.13,2013-03-18 02:18:00,
2013-03-17 21:28:00,36.8,33.3,29.81,East,100,5.0,5.0,87,0.37,,,2.08,Wunderground v.1.13,2013-03-18 02:28:00,
2013-03-17 21:38:00,36.8,33.3,29.83,ESE,102,4.0,4.0,87,0.08,,,2.09,Wunderground v.1.13,2013-03-18 02:38:00,
2013-03-17 21:48:00,36.9,33.4,29.84,NE,42,2.0,2.0,87,0.13,,,2.12,Wunderground v.1.13,2013-03-18 02:48:00,
2013-03-17 21:58:00,36.9,33.4,29.84,NNE,29,2.0,2.0,87,0.21,,,2.15,Wunderground v.1.13,2013-03-18 02:58:00,
2013-03-17 22:08:00,37.0,33.5,29.86,North,360,5.0,5.0,87,0.09,,,2.16,Wunderground v.1.13,2013-03-18 03:08:00,
2013-03-17 22:13:00,37.0,33.5,29.84,East,83,5.0,5.0,87,0.50,,,2.20,Wunderground v.1.13,2013-03-18 03:13:00,
2013-03-17 22:23:00,36.9,33.4,29.81,East,101,2.0,9.0,87,0.16,,,2.23,Wunderground v.1.13,2013-03-18 03:23:00,
2013-03-17 22:28:00,37.0,33.5,29.83,East,98,3.0,3.0,87,0.11,,,2.24,Wunderground v.1.13,2013-03-18 03:28:00,
2013-03-17 22:38:00,37.1,33.6,29.81,East,82,4.0,5.0,87,0.23,,,2.27,Wunderground v.1.13,2013-03-18 03:38:00,
2013-03-17 22:48:00,37.1,33.6,29.81,East,101,2.0,2.0,87,0.51,,,2.32,Wunderground v.1.13,2013-03-18 03:48:00,
2013-03-17 22:58:00,37.1,33.6,29.78,ESE,106,6.0,8.0,87,0.54,,,2.38,Wunderground v.1.13,2013-03-18 03:58:00,
2013-03-17 23:03:00,37.1,33.6,29.79,East,99,8.0,10.0,87,0.41,,,2.42,Wunderground v.1.13,2013-03-18 04:03:00,
2013-03-17 23:08:00,37.1,33.6,29.79,ENE,72,9.0,10.0,87,0.75,,,2.48,Wunderground v.1.13,2013-03-18 04:08:00,
2013-03-17 23:18:00,37.1,33.6,29.79,East,98,7.0,7.0,87,0.45,,,2.55,Wunderground v.1.13,2013-03-18 04:18:00,
2013-03-17 23:23:00,37.1,33.6,29.78,ENE,68,7.0,7.0,87,0.36,,,2.58,Wunderground v.1.13,2013-03-18 04:23:00,
2013-03-17 23:28:00,37.1,33.6,29.80,ESE,115,6.0,8.0,87,0.35,,,2.61,Wunderground v.1.13,2013-03-18 04:28:00,
2013-03-17 23:33:00,37.1,33.6,29.76,NNE,19,6.0,6.0,87,0.26,,,2.64,Wunderground v.1.13,2013-03-18 04:33:00,
2013-03-17 23:43:00,37.1,33.6,29.77,East,95,4.0,7.0,87,0.16,,,2.68,Wunderground v.1.13,2013-03-18 04:43:00,
2013-03-17 23:53:00,37.0,33.5,29.75,East,95,5.0,5.0,87,0.35,,,2.74,Wunderground v.1.13,2013-03-18 04:53:00,
2013-03-17 23:58:00,37.0,33.5,29.76,East,83,5.0,5.0,87,0.29,,,2.78,Wunderground v.1.13,2013-03-18 04:58:00,